Terug naar catalogus

ATLAS 5 CENTAUR DEB

ActiefHEO
NORAD 45473·DEBRIS·🇺🇸 United States

Gelanceerd Oct 17, 2018 vanaf Cape Canaveral Space Force Station

Loading…

Volgende Passages (komende 24 uur)

TLE

VersSource: Space-Track

Epoch: Sep 14, 2026, 20:52 UTC

1 45473U 18079BV  26257.86983025 -.00000141  00000-0  00000-0 0  9998
2 45473  13.0683  62.0780 4525826 254.9139  52.2056  1.70640196 43241

Volg ATLAS 5 CENTAUR DEB in realtime met AllMySat

Download on the App Store